Zurück zum Katalog

STARLINK-2698

AktivKommunikationVLEO
NORAD 48458·PAYLOAD·🇺🇸 United States

Gestartet May 9, 2021 von Cape Canaveral Space Force Station

Loading…

Nächste Überflüge (nächste 24 Stunden)

TLE

AktuellSource: CelesTrak SupGP

Epoche: Sep 14, 2026, 21:38 UTC

1 48458C 21040AG  26257.90187500 -.00000790  00000+0 -25348-4 0  2578
2 48458  53.1594  18.2164 0001029  75.1638 328.4477 15.31765306    15

Verfolge STARLINK-2698 in Echtzeit mit AllMySat

Download on the App Store